TimeEDT,TemperatureF,Dew PointF,Humidity,Sea Level PressureIn,VisibilityMPH,Wind Direction,Wind SpeedMPH,Gust SpeedMPH,PrecipitationIn,Events,Conditions,WindDirDegrees,DateUTC
12:00 AM,68.0,55.4,64,30.24,6.2,East,5.8,-,N/A,,Mostly Cloudy,90,2013-03-30 04:00:00
1:00 AM,68.0,55.4,64,30.23,6.2,ENE,6.9,-,N/A,,Mostly Cloudy,70,2013-03-30 05:00:00
2:00 AM,67,54,54,30.22,9,NE,5.8,,,,Partly Cloudy,50,2013-03-30 06:00:00
2:00 AM,68.0,53.6,60,30.22,6.2,NE,5.8,-,N/A,,Unknown,50,2013-03-30 06:00:00
3:00 AM,66.2,55.4,68,30.21,6.2,NE,3.5,-,N/A,,Scattered Clouds,50,2013-03-30 07:00:00
4:00 AM,66.2,53.6,64,30.20,6.2,NE,6.9,-,N/A,,Partly Cloudy,40,2013-03-30 08:00:00
5:00 AM,66.2,53.6,64,30.20,6.2,East,3.5,-,N/A,,Partly Cloudy,90,2013-03-30 09:00:00
6:00 AM,66.2,53.6,64,30.22,6.2,East,3.5,-,N/A,,Scattered Clouds,90,2013-03-30 10:00:00
7:00 AM,64.4,53.6,68,30.22,6.2,ENE,3.5,-,N/A,,Scattered Clouds,70,2013-03-30 11:00:00
8:00 AM,66,51,48,30.25,9,East,3.5,,,,Partly Cloudy,80,2013-03-30 12:00:00
8:00 AM,66.2,51.8,60,30.24,6.2,East,3.5,-,N/A,,Partly Cloudy,80,2013-03-30 12:00:00
9:00 AM,68.0,51.8,56,30.25,6.2,East,6.9,-,N/A,,Partly Cloudy,80,2013-03-30 13:00:00
10:00 AM,69.8,51.8,53,30.26,6.2,East,8.1,-,N/A,,Partly Cloudy,90,2013-03-30 14:00:00
11:00 AM,72,48,31,30.27,9,East,9.2,,,,Partly Cloudy,90,2013-03-30 15:00:00
11:00 AM,71.6,48.2,43,30.27,6.2,East,9.2,-,N/A,,Partly Cloudy,90,2013-03-30 15:00:00
12:00 PM,71.6,51.8,50,30.26,6.2,East,6.9,-,N/A,,Partly Cloudy,90,2013-03-30 16:00:00
1:00 PM,71.6,51.8,50,30.25,6.2,East,9.2,-,N/A,,Partly Cloudy,90,2013-03-30 17:00:00
3:00 PM,71.6,53.6,53,30.22,6.2,ENE,13.8,-,N/A,,Partly Cloudy,70,2013-03-30 19:00:00
4:00 PM,71.6,51.8,50,30.22,6.2,East,9.2,-,N/A,,Scattered Clouds,80,2013-03-30 20:00:00
5:00 PM,73,62,60,30.20,9,East,9.2,,,,Partly Cloudy,80,2013-03-30 21:00:00
5:00 PM,73.4,51.8,47,30.20,6.2,East,9.2,-,N/A,,Partly Cloudy,80,2013-03-30 21:00:00
6:00 PM,71.6,55.4,57,30.19,6.2,East,6.9,-,N/A,,Partly Cloudy,100,2013-03-30 22:00:00
7:00 PM,69.8,57.2,64,30.19,6.2,ESE,6.9,-,N/A,,Partly Cloudy,120,2013-03-30 23:00:00
8:00 PM,70,56,51,30.19,9,East,6.9,,,,Scattered Clouds,90,2013-03-31 00:00:00
8:00 PM,69.8,55.4,60,30.19,6.2,East,6.9,-,N/A,,Partly Cloudy,90,2013-03-31 00:00:00
9:00 PM,68.0,57.2,68,30.20,6.2,East,3.5,-,N/A,,Partly Cloudy,90,2013-03-31 01:00:00
10:00 PM,69.8,59.0,68,30.22,6.2,East,4.6,-,N/A,,Scattered Clouds,90,2013-03-31 02:00:00
11:00 PM,69.8,59.0,68,30.21,6.2,ENE,3.5,-,N/A,,Partly Cloudy,70,2013-03-31 03:00:00